Temp_Advection
nan nan nan nan nan nan nan nan nan nan nan nan nan nan nan nan nan nan nan nan nan nan nan nan nan nan nan nan nan nan nan nan nan nan nan nan nan nan nan nan nan nan nan nan nan
nan -0 -0 -0 -0 -0 -0 -0 -0 -0 -0 -0 -0 -0 -0 -1 -1 -1 -0 -0 -0 -0 -0 -0 -0 -0 -1 -0 0 0 -0 -0 -0 -1 -1 -0 -1 -0 -1 -2 -1 0 1 1 nan
nan -0 -0 -0 -0 -0 -0 -0 -0 -0 -0 -0 -0 -0 -0 -0 -1 -1 -0 -0 -0 -0 -0 -0 -0 -0 -1 -0 0 1 -0 0 0 -0 -1 -1 -0 -0 -2 -0 -2 -2 0 0 nan
nan -0 -0 -0 -0 -0 -0 -0 -0 -0 -0 -0 -0 -0 -0 -0 -0 -0 -0 -0 -0 -0 -0 -0 -0 0 0 -0 -1 -0 0 -0 -1 -1 -1 -1 -0 0 0 -0 -0 -2 -1 -0 nan
nan -0 -0 -0 -0 -0 -0 -0 -0 -0 -0 -0 -0 -1 -0 -0 -1 -0 -0 -0 -0 -0 -0 -0 -0 1 -0 -1 -0 0 -0 0 -0 -0 -0 -1 -0 -1 -1 1 0 0 -0 -0 nan
nan -0 -0 -0 -0 -0 -0 -0 -0 -0 -0 -0 -0 -0 -0 -1 -0 -0 -0 -0 -0 -0 -0 -0 -1 -0 1 -0 -0 0 -0 0 0 -0 -0 -0 0 -1 -1 -0 -0 -0 -0 -1 nan
nan -0 -0 -0 -0 -0 -1 -0 -0 -0 -0 -0 -0 -0 -1 -3 -0 0 -0 -0 -0 -0 -0 -0 -0 -0 0 -0 0 -0 -0 0 0 0 0 -0 0 0 -1 -0 -1 -0 -1 -1 nan
nan -0 -0 -0 -0 -0 -1 -1 -0 -0 -0 -0 -0 -0 -1 -2 -0 -0 -0 -0 -0 -0 -0 -0 -0 -0 -0 -0 -0 -0 0 0 0 0 0 0 0 -0 -1 -1 -1 -1 -1 -0 nan
nan -0 -0 -0 -0 -0 -0 -1 -0 -0 -0 -0 -0 -0 -1 -0 -0 -0 -0 -0 -0 -0 0 -0 -0 -0 -0 -0 -0 0 0 -0 0 1 0 0 0 0 -0 -1 -1 -1 -1 -0 nan
nan -0 -0 -0 -0 -0 -0 -0 -0 0 0 -0 0 -0 -1 -1 -0 -0 -0 -0 -0 0 0 0 0 0 -0 -0 -0 -0 -0 -0 -0 0 -0 0 0 0 0 -1 -1 -0 -0 0 nan
nan -0 -0 -0 -0 -0 -0 -0 -0 -0 0 -1 -0 -1 -1 -0 -0 0 0 0 -0 1 0 1 0 0 -1 -1 -1 -0 0 -0 -0 -0 -0 0 0 -0 0 -0 -1 -0 -0 0 nan
nan -0 -0 -0 -0 -0 -0 -0 -0 -0 -1 -2 -1 -1 -1 -1 -0 -0 0 0 1 0 0 0 -0 -1 -1 -0 -0 -0 0 0 -0 -0 -0 -0 -0 -0 -1 -1 -1 -1 -1 -1 nan
nan -0 -0 -0 -0 -0 -0 -0 -0 0 -0 -2 -1 -1 -1 -0 -0 -0 -0 0 0 0 0 -0 -1 -1 -0 0 -0 -0 -0 0 0 0 0 0 0 -0 -0 -1 -0 -1 -1 0 nan
nan -0 -0 -0 0 -0 -0 -0 -0 0 -0 -1 -0 -1 -1 -0 -0 -1 -1 0 0 0 -0 -0 -1 -0 0 0 0 -0 -0 -0 0 -0 0 0 -0 -0 -0 0 1 -0 -1 -0 nan
nan -0 -0 0 0 -0 -0 -0 -0 -0 -0 0 -0 -0 -0 -0 -0 -0 -0 1 0 -0 0 0 -0 -0 0 -0 0 0 -0 -0 -0 0 -0 0 -0 -0 0 0 -0 0 -1 0 nan
nan -0 0 0 0 -0 -0 -0 -0 0 -1 1 0 0 -0 0 0 -0 0 0 0 0 0 -0 -0 0 -0 -0 0 -0 -0 -0 -0 0 -0 -0 -0 -0 0 0 -0 0 1 -1 nan
nan 0 -0 -0 0 -0 -0 -0 -0 -0 -1 -0 0 0 0 0 -0 -0 0 0 0 0 -0 -0 -0 -0 0 -0 0 -0 -1 -0 -0 -0 -1 -0 0 0 -0 -0 0 -0 -0 -0 nan
nan -0 -0 -0 -0 -0 -0 -0 -0 -1 -0 -0 -0 0 0 -0 -0 0 0 0 -0 0 0 0 -0 -0 0 -0 0 0 -0 -0 -0 0 -0 -0 0 -0 -0 -0 -1 -1 -1 -0 nan
nan 0 -0 0 -0 0 -0 0 -1 0 -0 -0 -0 -0 -0 0 -0 -0 0 -0 -0 -0 0 -0 -0 0 0 0 -0 0 -0 -0 0 0 -0 -0 -0 -0 -0 -0 -1 -1 -2 -1 nan
nan 0 -0 0 0 0 -0 -1 -1 0 -0 -0 -0 -0 -0 0 0 -0 -0 -0 -0 -0 -0 -0 -0 -0 0 -0 -0 0 0 -0 -0 -0 0 -0 -0 0 0 -0 -0 -1 -1 -1 nan
nan 0 0 -0 0 -0 0 -1 -0 0 -0 -0 -0 -0 -0 -0 -0 -0 -1 -0 0 -0 -1 -0 0 -1 0 0 0 0 0 0 -0 0 0 0 -0 -0 0 -0 -0 -1 -2 -1 nan
nan 0 0 0 0 0 -0 -1 -0 0 0 0 0 -0 -0 -0 -0 -0 -0 0 0 -0 -0 -0 -0 -0 -0 -1 -0 0 0 -0 -0 -0 0 0 -0 -0 -0 -0 -1 -1 -1 -1 nan
nan 0 0 0 -0 -0 -1 -1 -1 -0 0 -0 0 -0 -0 -0 0 0 0 0 -0 -0 -0 -0 -0 -0 -1 -0 -1 -0 -0 -0 0 -0 0 -0 -0 0 -1 -1 -1 -1 -1 -0 nan
nan 0 0 0 -1 -0 -0 -0 -0 -0 -0 -0 -0 -0 -0 -0 -0 -0 -0 0 -0 -0 -0 -0 -0 -0 0 -0 -0 -0 -0 -0 -0 -0 -0 -0 -0 -0 -1 -1 -1 -1 -1 -1 nan
nan -0 -1 -0 -1 -0 -0 -0 -0 0 -0 -0 -0 -0 0 -0 -0 0 0 0 0 -0 -0 -0 -0 -0 -0 -0 -0 0 -0 -0 -0 0 -0 -1 -0 -1 -0 -1 -1 -2 -1 -1 nan
nan 0 -0 0 -1 -0 -0 -0 -0 -0 -0 -0 -0 -0 -0 -0 -0 -0 -0 -0 0 -0 -0 -0 -0 -0 -0 -0 -1 -0 -1 -0 -0 -1 -0 -1 -0 -0 -0 -1 -1 -1 -1 -1 nan
nan nan nan nan nan nan nan nan nan nan nan nan nan nan nan nan nan nan nan nan nan nan nan nan nan nan nan nan nan nan nan nan nan nan nan nan nan nan nan nan nan nan nan nan nan
Wind_Speed
12 12 12 11 11 11 11 11 13 13 14 15 16 17 17 17 12 11 12 10 9 12 15 13 8 8 10 18 19 26 2 10 4 17 8 18 12 19 23 22 12 6 14 22 33
14 13 13 13 13 12 11 12 13 13 14 15 16 17 17 19 15 13 8 13 12 14 17 13 15 13 20 19 19 4 3 4 2 10 12 18 21 16 9 22 16 23 21 36 31
15 16 15 14 14 14 13 12 13 13 13 15 15 17 16 17 16 10 10 12 14 15 15 14 15 19 20 24 27 16 4 4 13 23 24 18 17 15 23 6 19 34 38 32 28
12 15 16 17 15 14 14 13 12 13 12 14 15 17 17 13 2 4 6 6 10 12 13 13 16 16 6 7 22 4 7 13 11 23 18 15 20 12 18 12 29 27 31 31 30
11 12 14 16 17 16 15 14 13 12 12 12 14 16 17 8 14 4 5 5 7 7 9 9 18 23 7 11 10 1 6 13 11 15 15 23 12 9 18 31 28 26 27 30 27
11 12 13 14 15 16 16 15 13 12 11 11 13 13 15 10 5 8 7 6 6 10 18 15 22 21 21 2 5 4 10 12 5 11 13 11 8 10 22 30 29 27 29 27 25
11 11 13 13 14 14 16 16 14 12 11 10 11 13 15 23 5 3 9 8 6 8 8 12 8 8 8 3 1 2 4 5 5 6 4 3 2 9 32 30 33 30 28 26 24
11 11 12 13 13 14 15 15 13 12 11 10 10 11 14 17 14 11 11 13 10 7 9 12 9 9 2 6 2 2 2 4 7 14 8 9 9 9 37 36 32 32 30 28 27
12 10 12 12 13 14 15 13 12 12 10 10 9 8 13 5 14 14 13 15 14 8 8 7 3 5 2 2 3 3 5 8 1 19 7 7 7 13 39 34 32 34 32 30 29
11 10 10 12 12 14 13 11 7 10 8 9 10 7 12 16 16 12 11 12 8 8 6 6 4 0 2 3 6 8 7 8 7 9 6 7 2 10 32 34 32 32 34 34 33
11 10 9 11 10 11 12 6 4 1 9 10 9 13 18 8 4 11 11 8 11 10 6 12 2 6 11 12 9 12 11 7 3 9 11 12 9 14 24 25 27 32 36 37 35
10 9 7 8 7 3 10 9 7 7 10 18 26 28 25 15 5 10 14 15 13 6 6 4 7 13 13 9 10 13 10 5 2 9 5 9 10 10 22 30 37 37 35 39 37
10 8 6 5 2 4 6 5 10 7 5 15 23 23 23 13 14 22 15 21 9 7 9 9 11 12 10 8 7 3 2 3 5 5 4 4 6 8 8 28 31 34 39 43 45
9 7 6 2 1 2 3 8 10 8 2 6 8 20 22 20 13 23 20 17 7 11 8 8 15 8 3 2 4 4 3 1 7 2 4 7 8 7 7 11 24 30 36 41 44
7 7 6 4 2 6 9 13 8 2 1 2 6 5 12 19 7 5 18 19 10 8 4 10 7 7 3 2 3 1 6 4 3 5 6 7 5 8 7 3 16 24 32 40 45
6 7 7 6 4 5 10 5 1 3 4 3 5 5 3 13 19 12 8 5 6 5 7 8 6 0 2 3 2 1 1 5 3 1 3 15 5 13 8 7 14 17 27 38 38
7 9 11 8 6 9 6 2 3 2 3 3 3 5 8 6 9 5 5 3 4 1 5 7 8 5 5 2 1 1 5 3 4 1 7 8 3 4 7 7 6 12 26 34 38
7 8 12 13 9 5 1 2 3 6 1 1 1 4 4 8 9 8 5 5 8 7 6 5 8 8 4 7 7 5 7 5 4 2 6 6 3 3 5 22 27 31 36 38 38
6 6 9 10 12 5 2 1 4 4 9 5 8 5 5 5 4 8 7 4 4 7 2 4 1 9 8 3 5 4 3 7 3 3 3 4 2 3 7 9 20 24 33 33 37
8 4 1 5 7 5 1 5 4 5 6 8 3 5 5 6 3 3 3 10 7 9 4 5 4 4 2 6 6 3 2 5 4 1 4 5 6 6 6 8 10 15 26 31 35
11 4 8 6 4 4 3 5 5 9 8 6 6 6 7 7 7 3 8 5 9 8 10 7 4 6 2 2 5 2 2 2 3 3 3 3 6 7 11 12 13 19 30 35 33
5 2 8 9 4 4 3 4 5 6 4 3 4 6 6 7 7 5 5 5 17 11 4 2 0 3 5 8 4 3 1 3 4 6 4 4 7 2 8 15 24 25 33 34 33
4 6 4 15 3 2 6 10 12 5 3 1 2 4 6 5 6 6 5 9 14 6 3 5 4 3 8 6 8 6 9 6 4 2 4 2 6 2 15 19 25 30 31 35 33
3 3 4 10 9 1 3 8 4 3 7 10 3 6 5 3 2 4 3 2 7 4 4 3 2 2 3 6 4 7 10 8 3 1 4 3 6 3 14 17 24 29 34 33 30
5 4 9 4 5 6 4 6 6 4 5 7 3 3 2 2 3 3 3 6 4 2 1 3 1 5 7 7 7 9 7 6 5 6 5 8 7 8 13 16 26 32 33 31 27
3 3 8 2 14 9 4 3 6 6 6 4 2 5 6 3 4 3 4 7 5 8 7 5 2 5 6 7 9 5 12 11 8 11 6 9 8 7 21 27 27 30 34 33 30
1 2 2 3 7 4 4 4 3 1 3 8 3 4 4 5 10 10 8 4 4 2 3 4 3 3 2 6 9 5 6 7 4 9 2 5 6 11 8 14 16 19 19 20 23
Wind_Direction
288 291 294 296 299 303 308 312 314 319 318 322 322 322 320 315 296 274 259 250 266 274 298 308 255 274 270 259 259 255 298 277 299 124 195 122 95 88 115 124 82 170 162 171 169
279 285 290 293 295 298 302 307 309 313 315 319 319 318 322 317 307 264 226 256 270 286 293 288 290 298 249 248 250 193 178 292 99 120 140 118 116 119 119 97 81 95 133 156 167
277 279 284 289 292 293 297 299 302 307 312 314 317 314 319 316 316 279 238 251 260 281 286 272 295 299 286 245 256 268 191 87 107 125 133 127 130 146 138 149 161 141 146 158 158
286 281 280 282 287 291 292 294 296 301 307 311 314 313 320 316 288 298 241 249 273 277 268 276 284 297 295 260 270 163 50 78 125 133 137 149 147 171 172 204 174 162 161 159 161
284 289 290 285 283 287 289 291 291 293 298 305 309 316 324 310 250 268 299 291 274 256 260 257 279 285 267 270 289 312 101 80 109 146 151 136 154 130 111 142 155 155 161 161 164
286 290 294 297 293 287 285 288 288 286 290 299 302 309 316 280 208 219 286 279 238 285 289 264 270 280 286 99 55 84 85 112 127 104 134 133 141 109 137 148 152 158 162 167 170
287 294 295 300 303 297 288 282 284 280 280 287 293 301 292 257 236 259 248 283 260 280 283 295 323 325 281 95 68 115 105 118 163 124 142 141 155 141 156 157 153 162 168 174 177
289 295 300 302 305 305 298 280 278 276 269 273 282 289 273 267 258 274 270 246 249 260 283 299 310 311 307 81 42 94 167 179 213 161 195 168 246 175 163 156 161 170 176 178 180
286 293 302 306 307 310 308 287 270 266 258 260 271 270 269 289 245 238 231 243 242 225 237 272 284 287 63 69 349 242 229 234 151 171 156 159 262 184 166 162 169 176 180 179 168
282 291 303 308 315 319 323 295 256 259 256 251 237 280 266 245 242 250 211 250 278 196 216 254 267 199 23 110 221 234 218 255 195 217 135 193 216 164 167 171 176 178 184 178 173
280 289 300 310 321 333 7 41 354 25 225 227 220 212 285 315 269 194 193 226 250 238 185 237 158 211 225 216 223 247 259 266 250 186 155 193 203 198 186 184 177 181 184 181 179
276 283 294 305 324 19 20 32 23 322 303 247 254 258 263 278 295 264 230 238 224 241 231 295 228 236 229 236 232 243 256 314 21 141 127 222 232 221 190 200 190 181 183 179 176
272 273 277 301 0 69 16 355 307 296 255 284 245 240 248 250 254 267 254 227 227 220 240 205 242 239 237 260 296 268 97 352 277 184 227 229 285 254 221 207 196 188 185 183 185
267 261 262 250 143 347 62 300 317 338 324 254 201 238 231 228 248 253 252 219 231 233 241 230 254 271 204 310 320 301 277 358 333 145 215 163 284 254 241 263 186 184 181 178 181
256 244 244 194 191 77 324 291 314 319 331 140 130 173 201 200 248 235 217 235 215 248 222 258 298 246 187 231 341 312 48 19 346 331 5 319 292 278 269 186 180 182 183 176 177
238 227 215 189 216 312 289 320 322 54 254 123 140 179 237 195 246 281 194 192 310 283 275 247 241 335 115 95 88 104 28 352 319 210 304 263 182 279 276 184 174 175 170 160 158
226 216 206 199 184 244 292 327 44 173 267 77 153 167 201 193 240 236 157 170 204 164 279 281 249 230 179 121 178 73 63 347 322 335 236 276 321 267 26 26 136 143 130 145 161
216 215 211 204 217 289 302 31 207 234 258 355 66 298 246 204 218 237 179 209 235 226 251 233 303 214 184 175 187 206 155 164 240 295 283 358 273 23 34 57 79 113 127 141 146
198 207 217 210 219 231 5 144 221 16 8 22 337 251 246 191 139 188 198 301 49 46 15 300 267 37 71 67 145 309 172 219 232 294 347 247 357 37 80 80 100 112 120 126 140
158 131 213 216 199 174 51 255 245 74 23 8 294 39 322 169 104 141 91 9 356 9 34 337 34 29 30 44 353 169 251 12 350 328 271 322 317 185 170 160 126 107 113 121 135
155 161 172 208 168 139 186 254 311 75 54 9 334 349 25 27 30 29 14 62 13 336 9 22 76 297 80 163 220 357 290 236 161 163 226 277 276 204 188 163 137 128 125 129 137
171 140 184 189 133 201 223 254 328 134 65 310 344 6 9 43 22 74 79 39 8 5 28 358 1 329 253 270 303 326 291 113 125 278 236 186 272 331 154 129 125 123 128 135 139
210 141 175 170 158 244 260 270 270 319 122 282 327 53 5 29 44 86 90 63 42 47 47 332 358 8 344 356 13 15 359 20 352 44 286 103 276 125 93 106 117 118 119 128 138
242 124 139 200 259 282 254 246 231 290 336 297 333 80 23 321 95 27 107 96 69 69 39 40 351 122 201 270 296 342 339 338 80 102 275 261 295 113 108 107 108 111 119 127 139
220 201 179 197 246 242 278 271 213 139 222 326 26 355 252 285 300 183 219 132 138 26 104 93 9 21 339 323 319 310 313 328 354 323 9 36 56 26 114 117 120 121 124 133 146
280 14 172 321 172 202 244 296 180 240 148 268 286 272 278 335 334 55 50 21 63 352 16 355 325 8 343 334 359 11 37 46 30 21 354 103 73 72 102 113 122 137 148 152 159
178 306 64 271 156 162 219 260 204 256 220 106 90 240 310 60 62 71 68 4 336 351 328 337 27 14 298 7 12 16 30 34 57 16 301 50 118 94 80 103 125 133 137 142 149
Height
1534 1534 1534 1533 1533 1532 1531 1530 1528 1527 1526 1523 1521 1518 1515 1512 1510 1510 1508 1509 1510 1511 1511 1511 1512 1512 1512 1511 1511 1512 1524 1522 1513 1515 1517 1518 1519 1522 1526 1529 1534 1538 1538 1542 1552
1532 1532 1532 1531 1531 1530 1529 1528 1527 1525 1524 1522 1520 1517 1515 1511 1509 1506 1507 1507 1509 1510 1511 1510 1509 1510 1511 1508 1507 1507 1520 1512 1498 1505 1513 1517 1520 1523 1529 1531 1540 1539 1541 1544 1551
1529 1529 1529 1529 1529 1528 1526 1526 1525 1524 1522 1521 1519 1517 1515 1512 1509 1503 1504 1506 1508 1508 1509 1509 1508 1508 1506 1505 1502 1503 1513 1503 1506 1507 1510 1517 1521 1523 1527 1533 1532 1537 1542 1547 1551
1527 1527 1527 1527 1526 1525 1524 1524 1523 1522 1520 1520 1517 1514 1513 1512 1513 1503 1504 1506 1507 1507 1508 1508 1507 1505 1504 1504 1499 1503 1499 1501 1507 1508 1513 1516 1520 1522 1523 1522 1527 1533 1539 1544 1550
1526 1525 1524 1524 1523 1522 1522 1521 1520 1519 1519 1518 1516 1514 1513 1511 1504 1504 1505 1505 1506 1506 1506 1507 1507 1506 1504 1499 1500 1498 1500 1503 1507 1508 1510 1516 1518 1521 1526 1524 1529 1534 1540 1545 1550
1523 1522 1522 1521 1520 1519 1518 1518 1517 1517 1517 1516 1515 1514 1513 1511 1503 1504 1505 1505 1505 1505 1505 1506 1505 1502 1501 1501 1501 1501 1500 1503 1507 1509 1512 1515 1519 1518 1530 1526 1531 1535 1541 1545 1549
1521 1520 1520 1518 1518 1517 1515 1515 1514 1514 1514 1514 1513 1512 1510 1502 1500 1502 1504 1504 1503 1503 1502 1503 1502 1501 1499 1497 1498 1499 1504 1505 1507 1510 1513 1514 1521 1521 1523 1525 1529 1535 1540 1545 1549
1519 1518 1518 1517 1516 1514 1512 1511 1511 1511 1511 1511 1511 1510 1503 1499 1499 1498 1500 1501 1502 1502 1502 1501 1500 1500 1498 1498 1499 1502 1505 1521 1506 1507 1510 1514 1524 1514 1517 1520 1526 1532 1537 1542 1544
1517 1516 1516 1515 1514 1512 1510 1507 1507 1507 1508 1508 1509 1509 1500 1497 1496 1497 1498 1499 1501 1501 1501 1501 1500 1499 1499 1504 1513 1507 1524 1516 1509 1500 1507 1512 1516 1502 1510 1516 1522 1528 1534 1539 1540
1515 1515 1514 1513 1512 1510 1507 1504 1504 1504 1505 1506 1506 1511 1496 1492 1493 1494 1496 1497 1498 1499 1501 1502 1501 1501 1503 1513 1534 1521 1518 1511 1512 1504 1506 1513 1514 1511 1507 1511 1516 1523 1530 1533 1534
1513 1513 1512 1512 1511 1510 1507 1502 1505 1505 1503 1499 1496 1493 1489 1493 1492 1492 1494 1497 1497 1498 1502 1499 1506 1514 1506 1501 1498 1499 1502 1504 1495 1490 1502 1507 1509 1509 1506 1510 1512 1518 1522 1527 1530
1511 1512 1511 1511 1511 1511 1510 1509 1511 1511 1503 1495 1492 1492 1490 1493 1492 1492 1494 1496 1497 1501 1497 1502 1510 1495 1491 1491 1496 1496 1500 1500 1492 1491 1499 1504 1506 1499 1501 1496 1498 1505 1514 1520 1525
1509 1510 1510 1510 1510 1511 1511 1511 1509 1507 1505 1489 1485 1486 1487 1490 1489 1488 1492 1492 1493 1498 1497 1505 1494 1487 1489 1491 1493 1489 1493 1495 1500 1496 1495 1496 1507 1497 1490 1491 1497 1500 1505 1511 1513
1507 1508 1509 1509 1512 1510 1510 1509 1508 1506 1508 1484 1478 1480 1484 1487 1486 1483 1485 1490 1490 1495 1494 1494 1484 1485 1485 1488 1488 1499 1482 1486 1495 1502 1521 1498 1518 1496 1485 1477 1488 1496 1500 1504 1510
1505 1506 1508 1509 1509 1509 1510 1508 1507 1507 1523 1470 1474 1477 1479 1483 1478 1477 1481 1485 1489 1490 1488 1495 1487 1486 1485 1485 1484 1494 1484 1489 1491 1501 1505 1502 1515 1490 1479 1484 1484 1488 1494 1498 1503
1503 1505 1506 1506 1508 1509 1506 1507 1507 1515 1520 1475 1474 1476 1478 1479 1478 1479 1480 1482 1484 1485 1484 1486 1480 1480 1481 1481 1482 1483 1487 1491 1493 1503 1527 1500 1510 1494 1485 1476 1479 1485 1492 1498 1507
1501 1503 1505 1505 1507 1505 1506 1506 1515 1520 1471 1480 1477 1474 1478 1481 1480 1480 1481 1486 1496 1501 1500 1486 1481 1477 1477 1485 1483 1485 1501 1530 1532 1531 1528 1491 1499 1494 1484 1478 1476 1485 1494 1502 1507
1499 1501 1502 1504 1505 1507 1507 1508 1516 1484 1481 1474 1474 1476 1480 1476 1479 1478 1482 1493 1485 1489 1498 1504 1508 1478 1474 1481 1492 1492 1501 1529 1535 1535 1523 1491 1506 1506 1492 1486 1485 1489 1496 1504 1511
1498 1499 1501 1503 1505 1507 1509 1515 1502 1486 1481 1481 1480 1482 1481 1473 1473 1479 1483 1488 1486 1490 1499 1497 1491 1472 1473 1477 1482 1490 1504 1492 1508 1503 1520 1509 1497 1500 1493 1494 1494 1498 1502 1510 1515
1497 1499 1501 1502 1504 1507 1510 1506 1491 1483 1484 1484 1490 1478 1485 1476 1478 1478 1484 1493 1491 1486 1483 1490 1500 1479 1480 1479 1480 1485 1487 1510 1513 1526 1531 1513 1506 1512 1501 1497 1499 1504 1510 1516 1521
1497 1499 1500 1502 1504 1507 1514 1501 1489 1485 1487 1490 1491 1486 1484 1487 1484 1483 1498 1495 1493 1489 1484 1489 1495 1497 1484 1490 1493 1494 1498 1495 1501 1509 1527 1531 1519 1486 1487 1489 1497 1505 1511 1516 1521
1496 1498 1499 1502 1506 1503 1507 1495 1490 1487 1488 1490 1489 1488 1490 1490 1492 1494 1504 1500 1495 1492 1497 1496 1497 1509 1496 1483 1479 1480 1486 1492 1518 1519 1510 1516 1518 1479 1478 1487 1495 1505 1511 1517 1523
1494 1495 1498 1500 1507 1504 1498 1495 1493 1489 1489 1489 1490 1490 1491 1493 1502 1497 1500 1500 1498 1498 1503 1501 1508 1520 1510 1492 1489 1494 1493 1492 1496 1502 1509 1522 1519 1484 1484 1494 1502 1507 1515 1520 1525
1492 1496 1498 1499 1497 1498 1497 1495 1494 1490 1492 1491 1491 1492 1495 1497 1494 1500 1501 1500 1500 1501 1501 1502 1506 1513 1527 1515 1505 1506 1497 1494 1497 1514 1510 1509 1498 1498 1498 1501 1507 1513 1518 1523 1529
1488 1486 1487 1497 1495 1495 1496 1490 1491 1494 1494 1494 1493 1496 1499 1503 1500 1500 1498 1501 1502 1503 1503 1505 1515 1511 1508 1504 1500 1500 1500 1497 1498 1501 1510 1514 1511 1505 1503 1505 1510 1515 1521 1525 1530
1486 1484 1485 1485 1487 1493 1492 1490 1490 1492 1494 1496 1498 1498 1499 1503 1502 1505 1503 1507 1511 1506 1507 1506 1518 1513 1516 1505 1505 1505 1503 1502 1502 1504 1501 1508 1516 1512 1510 1511 1514 1514 1514 1515 1521
1485 1485 1485 1483 1486 1491 1491 1489 1488 1490 1491 1493 1496 1498 1500 1505 1504 1504 1505 1507 1508 1510 1512 1513 1518 1521 1522 1510 1512 1524 1512 1509 1509 1507 1503 1511 1517 1515 1518 1519 1520 1523 1527 1530 1532